Weather History for Johannesburg, South Africa

Change the Weather History Date:

Monday, November 11, 2013

  Actual Average Record
Temperature  
Mean Temperature 66 °F -  
Max Temperature 78 °F - - ()
Min Temperature 54 °F - - ()
Cooling Degree Days 1    
Growing Degree Days 16 (Base 50)    
Moisture  
Dew Point 54 °F    
Average Humidity 67    
Maximum Humidity 88    
Minimum Humidity 30    
Precipitation  
Precipitation 0.00 in - - ()
Sea Level Pressure  
Sea Level Pressure 30.18 in    
Wind  
Wind Speed 11 mph ()    
Max Wind Speed 26 mph    
Max Gust Speed 37 mph    
Visibility 6.7 miles    
Events Rain , Hail , Thunderstorm    
T = Trace of Precipitation, MM = Missing Value Source: Averaged Metar Reports

Daily Weather History Graph

Daily Weather History Graph

Search for Another Location

Airport:

Trip Planner

Search our weather history database for the weather conditions in past years. The results will help you decide how hot, cold, wet, or windy it might be!

Date:

Astronomy

Nov. 11, 2013 Rise Set
Actual Time 5:11 AM SAST 6:30 PM SAST
Civil Twilight 4:46 AM SAST 6:55 PM SAST
Nautical Twilight 4:17 AM SAST 7:25 PM SAST
Astronomical Twilight 3:47 AM SAST 7:55 PM SAST
Moon 12:53 PM SAST (11/11) 12:53 AM SAST (11/11)
Length of Visible Light 14h 08m
Length of Day
13h 19m
Waxing Gibbous, 63% of the Moon is Illuminated
Nov 11
Waxing Gibbous
Nov 17
Full
Nov 25
Last Quarter
Dec 3
New
Dec 9
First Quarter

Hourly Weather History & Observations

Time (SAST) Temp. Dew Point Humidity Pressure Visibility Wind Dir Wind Speed Gust Speed Precip Events Conditions
12:00 AM 59.0 °F 53.6 °F 82% 30.21 in - NE 11.5 mph - N/A   Clear
1:00 AM 57.2 °F 50.0 °F 77% 30.21 in - East 6.9 mph - N/A   Clear
2:00 AM 55 °F 50 °F 78%  in 12 mi East 5.8 mph - -   Haze
2:00 AM 55.4 °F 50.0 °F 82% 30.21 in - NE 5.8 mph - N/A   Clear
3:00 AM 55.4 °F 51.8 °F 88% 30.18 in - NNE 8.1 mph - N/A   Clear
4:00 AM 55.4 °F 51.8 °F 88% 30.18 in - NNE 9.2 mph - N/A   Clear
4:30 AM 55.4 °F 51.8 °F 88% 30.21 in - NNE 6.9 mph - N/A   Clear
5:00 AM 55.4 °F 51.8 °F 88% 30.21 in - NNE 8.1 mph - N/A   Clear
5:30 AM 55.4 °F 51.8 °F 88% 30.21 in - NNE 8.1 mph - N/A   Clear
6:00 AM 57.2 °F 51.8 °F 82% 30.21 in - NNE 9.2 mph - N/A   Clear
6:30 AM 59.0 °F 53.6 °F 82% 30.21 in 6.2 mi NNE 12.7 mph - N/A   Scattered Clouds
7:00 AM 60.8 °F 55.4 °F 82% 30.24 in 6.2 mi NNE 15.0 mph - N/A   Mostly Cloudy
7:30 AM 62.6 °F 55.4 °F 77% 30.24 in 6.2 mi NNE 15.0 mph - N/A   Mostly Cloudy
8:00 AM 64 °F 55 °F 65%  in 12 mi NE 13.8 mph - -   Mostly Cloudy
8:00 AM 64.4 °F 55.4 °F 73% 30.24 in 6.2 mi North 13.8 mph - N/A   Scattered Clouds
8:30 AM 64.4 °F 57.2 °F 77% 30.24 in 6.2 mi NNE 13.8 mph - N/A   Scattered Clouds
9:00 AM 66.2 °F 57.2 °F 73% 30.24 in 6.2 mi North 15.0 mph - N/A   Scattered Clouds
9:30 AM 68.0 °F 59.0 °F 73% 30.24 in 6.2 mi North 15.0 mph - N/A   Mostly Cloudy
10:00 AM 68.0 °F 59.0 °F 73% 30.24 in 6.2 mi North 15.0 mph - N/A   Mostly Cloudy
10:30 AM 68.0 °F 59.0 °F 73% 30.24 in 6.2 mi North 13.8 mph - N/A   Mostly Cloudy
11:00 AM 71.6 °F 59.0 °F 64% 30.24 in 6.2 mi North 12.7 mph - N/A   Scattered Clouds
11:30 AM 73.4 °F 57.2 °F 57% 30.24 in 6.2 mi North 12.7 mph - N/A   Mostly Cloudy
12:00 PM 73.4 °F 57.2 °F 57% 30.21 in 6.2 mi NNW 15.0 mph - N/A   Mostly Cloudy
12:30 PM 75.2 °F 57.2 °F 53% 30.21 in 6.2 mi North 11.5 mph - N/A   Mostly Cloudy
1:00 PM 73.4 °F 55.4 °F 53% 30.18 in 6.2 mi North 13.8 mph - N/A   Mostly Cloudy
1:30 PM 75.2 °F 55.4 °F 50% 30.18 in 6.2 mi NW 11.5 mph - N/A   Mostly Cloudy
2:00 PM 77.0 °F 51.8 °F 41% 30.15 in 6.2 mi WNW 9.2 mph - N/A   Scattered Clouds
2:30 PM 78.8 °F 53.6 °F 42% 30.15 in 6.2 mi NNW 11.5 mph - N/A   Scattered Clouds
3:00 PM 78.8 °F 50.0 °F 36% 30.12 in 6.2 mi NW 11.5 mph - N/A   Scattered Clouds
3:30 PM 78.8 °F 53.6 °F 42% 30.09 in 6.2 mi NW 13.8 mph - N/A   Scattered Clouds
4:00 PM 78.8 °F 51.8 °F 39% 30.09 in 6.2 mi NW 15.0 mph - N/A   Partly Cloudy
4:30 PM 77.0 °F 51.8 °F 41% 30.09 in 6.2 mi NW 10.4 mph - N/A   Partly Cloudy
5:00 PM 78 °F 53 °F 30%  in 19 mi North 16.1 mph - -   Haze
5:00 PM 77.0 °F 51.8 °F 41% 30.06 in 6.2 mi North 16.1 mph - N/A   Partly Cloudy
5:30 PM 77.0 °F 53.6 °F 44% 30.09 in 6.2 mi NNE 17.3 mph - N/A   Partly Cloudy
6:00 PM 73.4 °F 59.0 °F 61% 30.06 in 6.2 mi NNE 26.5 mph - N/A   Partly Cloudy
6:30 PM 60.8 °F 57.2 °F 88% 30.09 in 1.9 mi ESE 21.9 mph 36.8 mph N/A Rain , Hail , Thunderstorm Heavy Thunderstorms and Rain
7:00 PM 64.4 °F 55.4 °F 73% 30.15 in 3.7 mi NE 16.1 mph - N/A Rain , Thunderstorm Light Thunderstorms and Rain
7:30 PM 62.6 °F 57.2 °F 82% 30.18 in 5.0 mi ENE 16.1 mph - N/A Rain , Thunderstorm Light Thunderstorms and Rain
8:00 PM 62.6 °F 57.2 °F 82% 30.18 in 6.2 mi Variable 9.2 mph - N/A Rain , Thunderstorm Light Thunderstorms and Rain
9:00 PM 60.8 °F 53.6 °F 77% 30.15 in 6.2 mi NNW 17.3 mph - N/A   Partly Cloudy
10:00 PM 60.8 °F 51.8 °F 72% 30.18 in - North 17.3 mph - N/A   Clear
11:00 PM 60.8 °F 53.6 °F 77% 30.18 in - NNE 17.3 mph - N/A   Clear